Location: Newark
(48.1500°N, 13.1167°E)
Time: 22:09:18
(UTC+00:00)

XW-2D - Pass Details

Date: 11 December 2021
Orbit: 502 x 522 km, 97.5° (Epoch: 19 January)

Event Time Altitude Azimuth Distance (km) Brightness Sun altitude
Rises 05:30:34 0° 9° (N) 2,670 ? -12.2°
Reaches altitude 10° 05:32:42 10° 6° (N) 1,775 ? -11.9°
Maximum altitude 05:36:29 61° 286° (WNW) 598 ? -11.3°
Drops below altitude 10° 05:40:13 10° 206° (SSW) 1,754 ? -10.7°
Sets 05:42:18 0° 203° (SSW) 2,634 ? -10.4°
